GFSNIL_sfc_thetae_285.txt.gz
Theta_e
356 353 353 355 354 353 352 353 362 358 358 359 359 359 361 358 357 360 358 359 358 352
352 355 355 355 354 351 354 354 358 359 357 358 359 359 362 356 358 359 358 358 358 356
339 341 343 345 346 346 349 355 361 358 358 358 358 359 360 357 360 358 357 355 358 358
337 338 338 338 339 340 343 345 347 356 356 356 357 359 358 360 359 357 358 359 358 358
335 336 335 335 336 339 340 342 342 344 349 355 355 358 358 357 357 356 356 357 358 357
328 329 329 331 334 337 338 338 337 339 340 341 348 354 354 356 357 357 357 358 358 358
325 326 328 330 332 333 336 337 337 338 337 336 338 340 353 355 352 354 356 358 359 358
319 322 326 328 331 333 334 335 337 337 335 334 332 329 341 347 353 354 352 355 357 358
316 318 319 322 325 328 332 334 335 334 332 331 329 325 328 334 334 346 354 353 354 352
314 314 316 317 318 320 324 326 326 328 329 328 330 325 323 326 329 336 347 353 352 353
313 313 314 316 316 317 318 320 320 323 326 327 328 323 321 323 328 333 342 347 351 351
313 313 314 314 315 315 316 316 318 320 323 325 327 320 318 320 325 328 338 345 353 351
314 314 314 316 316 316 316 316 315 316 320 320 324 320 316 318 322 325 332 338 348 337
314 311 312 313 312 311 312 314 312 310 312 318 322 324 316 315 321 324 329 333 341 346

GFSNIL_sfc_thetae_288.txt.gz
Theta_e
357 356 357 362 366 365 365 366 366 362 364 365 365 364 365 359 360 366 360 363 364 357
346 344 343 349 352 346 349 345 350 358 363 364 364 364 366 361 360 363 361 360 363 361
340 341 345 345 342 343 342 344 345 344 348 354 361 362 363 363 364 362 359 358 365 363
340 341 341 340 340 341 342 344 343 344 344 344 348 357 358 362 362 363 364 362 362 364
332 335 335 336 337 339 339 341 342 342 341 342 342 345 352 355 357 358 361 361 362 363
325 328 330 332 334 336 337 338 338 340 340 340 340 339 340 342 345 354 359 359 362 360
321 322 323 325 328 330 334 335 336 337 338 339 341 339 337 337 339 342 349 357 357 359
322 322 322 323 324 326 327 329 332 335 336 338 337 336 338 334 334 337 336 344 354 359
321 321 321 322 322 323 323 324 325 327 331 333 333 329 328 330 331 332 332 333 338 343
320 319 320 320 320 320 321 322 322 323 324 326 329 326 326 328 332 332 331 335 335 336
318 318 319 321 320 322 321 322 321 321 324 324 325 322 321 324 330 332 334 334 336 338
319 318 317 317 318 319 319 320 321 321 324 324 325 319 318 322 326 328 332 333 337 338
320 319 317 317 317 315 316 316 317 319 322 321 323 317 314 318 321 324 326 331 332 327
319 317 318 319 320 315 313 313 312 312 315 320 322 323 313 312 319 322 324 324 325 328

GFSNIL_sfc_thetae_291.txt.gz
Theta_e
355 362 361 358 363 364 365 364 358 357 359 365 365 367 370 363 364 364 362 367 366 356
345 345 340 344 346 341 347 342 344 349 350 352 356 366 368 362 366 368 365 361 366 360
347 349 349 348 343 343 344 348 347 347 345 347 351 355 362 360 364 368 361 361 364 365
337 340 342 340 344 343 345 348 348 349 349 347 348 350 352 358 357 359 361 367 365 363
329 331 331 337 335 336 339 341 343 345 346 347 348 349 348 346 345 349 352 358 360 361
324 324 324 325 328 329 331 332 333 338 341 343 345 346 347 348 345 344 344 348 354 361
323 324 323 325 327 327 328 328 329 331 336 338 341 342 345 346 346 345 342 342 347 353
325 326 325 325 325 326 326 326 327 329 328 330 332 331 339 342 345 345 344 344 342 340
324 324 324 325 325 325 325 326 328 326 326 327 324 323 325 328 330 336 338 338 340 340
324 323 323 324 323 322 324 326 326 327 328 328 329 323 322 325 328 331 333 336 337 337
323 323 323 323 323 324 323 323 323 323 326 327 326 322 320 321 326 326 328 330 334 336
323 323 322 321 320 321 319 321 323 322 322 322 323 319 318 320 323 323 325 327 331 333
325 324 323 322 322 322 319 321 319 315 316 316 316 317 315 317 321 321 321 324 326 324
327 327 327 325 323 322 320 319 311 311 313 314 315 316 314 314 318 317 318 320 321 326

GFSNIL_sfc_thetae_294.txt.gz
Theta_e
347 348 345 341 341 347 348 348 352 356 353 353 353 358 367 360 362 361 359 360 361 357
346 346 347 347 349 343 345 342 344 348 348 350 344 350 351 349 361 364 362 358 359 358
343 345 345 345 349 350 347 347 346 346 347 346 347 348 348 345 346 354 356 363 362 359
336 335 336 337 334 333 335 337 338 340 341 341 343 345 344 345 344 342 348 355 358 360
322 326 325 328 330 330 331 332 332 330 331 335 338 339 340 342 343 341 339 340 344 348
322 322 321 326 328 329 329 329 328 329 328 328 330 331 334 337 339 340 341 340 339 338
324 325 324 327 327 328 328 326 326 327 327 327 327 327 328 328 330 335 336 339 340 339
327 329 328 328 328 327 327 326 326 326 327 327 326 325 324 324 324 324 325 327 330 337
328 326 328 328 327 327 326 326 325 324 324 323 323 324 325 326 323 323 322 322 325 328
326 326 327 327 326 325 324 324 322 323 323 322 322 322 322 323 321 321 322 321 321 322
327 327 327 327 326 324 324 322 321 321 320 318 318 318 317 318 318 318 320 321 322 321
328 326 326 325 325 325 324 322 320 320 318 316 316 315 314 315 315 315 317 319 322 322
329 328 326 326 327 326 324 323 321 320 318 316 315 313 311 312 312 312 314 317 319 321
330 330 329 328 329 327 325 323 321 318 315 314 313 312 310 310 312 313 313 314 315 318

GFSNIL_sfc_thetae_300.txt.gz
Theta_e
336 334 333 335 335 334 333 336 335 335 335 334 335 336 337 337 337 337 336 340 340 346
330 328 326 325 326 326 325 326 326 327 326 326 327 330 329 331 332 334 334 334 333 335
325 325 326 323 321 321 322 322 323 322 322 322 323 322 321 321 322 322 323 325 327 332
326 326 326 324 323 324 322 323 320 320 322 320 320 320 319 319 321 320 320 321 321 323
327 328 326 326 324 325 321 322 320 321 319 318 319 319 318 318 318 317 316 317 317 317
322 324 321 320 321 322 321 319 318 317 317 318 318 317 315 314 314 315 316 316 316 316
321 319 319 320 320 318 318 317 316 316 316 318 318 316 312 313 311 311 312 313 313 313
318 316 316 316 317 317 316 317 317 315 314 315 317 314 313 313 311 309 310 310 311 312
315 316 317 316 316 315 314 314 314 313 313 312 316 319 320 317 311 310 309 308 309 309
318 316 317 315 315 314 313 313 314 313 313 312 312 318 319 319 313 310 309 308 308 308
316 315 315 315 315 315 314 314 314 314 314 312 314 318 317 318 312 310 308 308 309 308
315 314 314 314 314 315 315 315 315 316 315 314 314 316 314 314 310 309 308 310 310 311
316 315 315 315 315 316 316 317 318 317 318 317 316 316 313 312 310 308 308 310 310 313
317 316 316 316 316 317 318 317 317 316 317 317 316 315 312 311 310 308 308 308 308 310